Satellite-Ground Cal/Val Site Overpasses Predictions

Prediction of Satellite NPP Overpassing Cal/Val Site: Antarctic Dome C

Ground Cal/Val Site Location: Latitude: -75.10, Longitude: 123.35; Satellite-Ground Site NADIR distance within 100 km.

Table of predicted overpasses for the next 14.0 days since TLE Epoch: 10/20/2017
Interval Starting Time Ending Time Minimum Distance Time Minimum Distance (km)
1 10/22/2017 15:08:13 10/22/2017 15:08:21 10/22/2017 15:08:17 95.65
2 10/23/2017 14:49:12 10/23/2017 14:49:41 10/23/2017 14:49:27 15.68
3 10/25/2017 07:32:02 10/25/2017 07:32:31 10/25/2017 07:32:16 3.64
4 10/28/2017 14:55:29 10/28/2017 14:55:58 10/28/2017 14:55:43 21.21
5 10/29/2017 14:36:46 10/29/2017 14:37:01 10/29/2017 14:36:54 86.01
6 10/30/2017 07:38:19 10/30/2017 07:38:46 10/30/2017 07:38:33 39.57
7 10/31/2017 07:19:33 10/31/2017 07:19:54 10/31/2017 07:19:43 70.39
8 11/02/2017 15:01:47 11/02/2017 15:02:11 11/02/2017 15:01:59 58.37


NCC Satellite Cal/Val Overpasses Prediction Service
